Regional Weather Roundup
Issued by NWS Sterling, VA

Home | Current Version | Previous Version | Text Only | Print | Product List | Glossary On
Versions: 1 2 3 4 5 6 7 8 9 10 11 12 13 14 15 16 17 18 19 20 21 22 23 24 25 26 27 28 29 30 31 32 33 34 35 36 37 38 39 40 41 42 43 44 45 46 47 48 49 50
559
ASUS41 KLWX 092110
RWRLWX

REGIONAL WEATHER ROUNDUP
NATIONAL WEATHER SERVICE BALTIMORE MD/WASHINGTON DC
400 PM EST TUE FEB 09 2016

Note: "FAIR" indicates few or no clouds below 12,000 feet
with no significant weather and/or obstructions to visibility.
 TC=TEMPERATURE CELSIUS

 * =Non NWS site. Station does not report precipitation (e.g. rain,
    snow, etc.), thunder, or fog.

DCZ001-MDZ009-015-VAZ040>042-051-053>054-092200-
WASHINGTON METRO

CITY           SKY/WX    TMP DP  RH WIND       PRES   REMARKS
WASHINGTON NAT CLOUDY    39  30  70 NW9       29.58R
DULLES         LGT SNOW  36  28  73 NW8       29.57R
ANDREWS AFB    PTSUNNY   38  30  74 NW13      29.55R
FT BELVOIR     PTSUNNY   39  32  75 NW9       29.58R
QUANTICO       CLOUDY    40  35  83 N8        29.60R
COLLEGE PARK*  PTSUNNY   39  30  70 W9        29.57R
LEESBURG*      CLOUDY    37  32  81 NW14      29.58R WCI  29
MANASSAS*      FLURRIES  36  34  93 N5        29.58R
GAITHERSBURG*  PTSUNNY   34  28  80 NW10      29.60R WCI  26

$$

MDZ006>007-011-014-092200-
BALTIMORE METRO

CITY           SKY/WX    TMP DP  RH WIND       PRES   REMARKS
BWI AIRPORT    PTSUNNY   37  33  85 W7        29.56R
MD SCIENCE CTR   N/A     36  32  85 MISG      29.56S
MARTIN STATE   DRIZZLE   37  37 100 CALM      29.58R
ANNAPOLIS      CLOUDY    38  33  82 NW10      29.56R
FORT MEADE*    PTSUNNY   36  32  87 NW5       29.59R

$$

MDZ012-015-019>023-092200-
MARYLAND EASTERN SHORE

CITY           SKY/WX    TMP DP  RH WIND       PRES   REMARKS
OCEAN CITY     HVY RAIN  36  33  89 W10G18    29.56R FOG     WCI  28
SALISBURY      CLOUDY    41  37  86 CALM      29.54R
BAY BRIDGE AP*   N/A     36  36 100 CALM      29.57R
CAMBRIDGE*     PTSUNNY   37  34  87 NW9G18    29.55R
EASTON*        CLOUDY    37  37 100 NW5       29.59R

$$

MDZ017>025-092200-
SOUTHERN MARYLAND

CITY           SKY/WX    TMP DP  RH WIND       PRES   REMARKS
PATUXENT RIVER LGT RAIN  38  33  82 NW12      29.56R
ST INIGOES     PTSUNNY   42  36  79 W9        29.56R
LEONARDTOWN*   CLOUDY    37  34  87 W6        29.58R

$$

MDZ003>005-092200-
NORTH CENTRAL MARYLAND

CITY           SKY/WX    TMP DP  RH WIND       PRES   REMARKS
FREDERICK*     CLOUDY    34  30  86 W5        29.60R
HAGERSTOWN APT SNOW      31  28  89 W6        29.56R VSB 1/2
WESTMINSTER*   LGT SNOW  32  30  93 W9G17     29.54R WCI  24

$$

MDZ501>502-092200-
WESTERN MARYLAND

CITY           SKY/WX    TMP DP  RH WIND       PRES   REMARKS
OAKLAND*       CLOUDY    19  14  79 W14G21    29.50R FOG     WCI   6
CUMBERLAND*    CLOUDY    32  25  74 NW6       29.63R

$$

VAZ025>031-092200-
SHENANDOAH VALLEY

CITY           SKY/WX    TMP DP  RH WIND       PRES   REMARKS
WINCHESTER*    PTSUNNY   37  25  60 W9        29.56R
FRONT ROYAL*   CLOUDY    37  21  52 NW3       29.55R
LURAY*         CLOUDY    37  19  48 W7        29.54R
NEW MARKET*    CLOUDY    37  17  45 NW3       29.54R
STAUNTON*      CLOUDY    39  19  44 W10       29.57R
WAYNESBORO*    CLOUDY    34  15  45 SW13      29.54R WCI  25

$$

WVZ021-048>050-054>055-092200-
EASTERN WEST VIRGINIA PANHANDLE

CITY           SKY/WX    TMP DP  RH WIND       PRES   REMARKS
MARTINSBURG    CLOUDY    34  25  69 NW12      29.57R WCI  25
PETERSBURG*    FAIR      33  17  53 W12G18    29.61R WCI  24

$$

VAZ036>039-050-092200-
CENTRAL FOOTHILLS

CITY           SKY/WX    TMP DP  RH WIND       PRES   REMARKS
CHARLOTTESVILL PTSUNNY   41  19  41 W9        29.55R
CULPEPER*      CLOUDY    36  34  94 CALM      29.58R
ORANGE*        PTSUNNY   43  27  52 W6        29.57R
GORDONSVILLE*  CLOUDY    42  22  46 W3        29.55R
WARRENTON*     CLOUDY    36  36  99 NE3       29.57R

$$

VAZ055>057-092200-
NORTH AND CENTRAL PIEDMONT

CITY           SKY/WX    TMP DP  RH WIND       PRES   REMARKS
FREDERICKSBRG* PTSUNNY   38  35  89 N6        29.57R
STAFFORD*      PTSUNNY   37  34  89 N8        29.61S

$$

NCZ024-NYZ072-PAZ021-071-VAZ022-071-092200-
OTHER REGIONAL OBSERVATIONS

CITY           SKY/WX    TMP DP  RH WIND       PRES   REMARKS
NEW YORK CITY  CLOUDY    36  22  56 E3        29.59S
PHILADELPHIA   LGT SNOW  36  31  82 NE9       29.56S WCI  29
PITTSBURGH     CLOUDY    28  22  78 W9        29.59R WCI  19
ROANOKE        CLOUDY    31  14  49 W15G24    29.67R WCI  20
RICHMOND       LGTSLEET  41  31  67 NW9       29.57R
RALEIGH        CLOUDY    40  19  43 W10G20    29.66R

$$

ANZ530>537-092200-
MARINE OBSERVATIONS

STATION/POSITION TIME  TEMP    WIND        PRES
                       AIR SEA DIR/SP/G
                 (UTC) (F)     (DEG/KT/KT) (MB)
THOMAS PT LIGHT  2000   37 39  300/ 14/ 16 1000.9
BALT KEY BRIDGE  2000   35     310/  3/  4 1000.7R
COVE POINT       2000   38     340/ 11/ 13 1001.1R
LEWISETTA        2000   39 41  320/ 11/ 15 1000.7R
SOLOMONS ISLAND  2000   39 41  330/  7/  8   N/A
PINEY POINT      2000          320/ 14/ 15   N/A

$$





USA.gov is the U.S. government's official web portal to all federal, state and local government web resources and services.